Bowling Green, Kentucky, United States (42101)
Lat: 36.99N, Lon: 86.44W
Wx Zone: KYZ071
Local Info
Past Weather Observations for Tuesday, February 2, 2016

NOTE: This archive is for the closest National Weather Service station to Bowling Green. Information may differ from the station used for current weather conditions.

Click here for Long-term Archive

Time Weather Temperature Dewpoint Humidity Pressure Winds Precip Visibility
23:55
Overcast
Heavy Rain
61°F / 16°C 61°F / 16°C 100% 29.65 in
(1004 mb)
SSW 10.4 mph
(SSW 17 kph)
0.35 in
(8.89 mm)
3SM
23:35
Overcast
Rain
63°F / 17°C 63°F / 17°C 100% 29.68 in
(1005 mb)
SSW 13.8 mph
(SSW 22 kph)
0.07 in
(1.78 mm)
7SM
23:15
Overcast
Light Rain
63°F / 17°C 63°F / 17°C 100% 29.62 in
(1003 mb)
S 12.7 mph
(S 20 kph)
0.01 in
(0.25 mm)
10SM
22:55
Overcast
Rain
63°F / 17°C 63°F / 17°C 100% 29.62 in
(1003 mb)
SSE 21.9 mph
(SSE 35 kph)
0.31 in
(7.87 mm)
7SM
22:35
Overcast
Heavy Rain
63°F / 17°C 63°F / 17°C 100% 29.65 in
(1004 mb)
S 15 mph
(S 24 kph)
0.20 in
(5.08 mm)
5SM
22:15
Overcast
Heavy Rain
63°F / 17°C 61°F / 16°C 94% 29.65 in
(1004 mb)
S 16.1 mph
(S 26 kph)
0.07 in
(1.78 mm)
5SM
21:55
Overcast
Rain
64°F / 18°C 59°F / 15°C 83% 29.65 in
(1004 mb)
S 17.3 mph
(S 28 kph)
0.07 in
(1.78 mm)
7SM
21:35
Overcast
Light Rain
64°F / 18°C 59°F / 15°C 83% 29.62 in
(1003 mb)
S 19.6 mph
(S 32 kph)
0.02 in
(0.51 mm)
10SM
21:15
Overcast
Light Rain
64°F / 18°C 59°F / 15°C 83% 29.65 in
(1004 mb)
S 18.4 mph
(S 30 kph)
- 10SM
20:55
Overcast
Light Rain
63°F / 17°C 59°F / 15°C 88% 29.65 in
(1004 mb)
S 15 mph
(S 24 kph)
0.06 in
(1.52 mm)
10SM
20:35
Overcast
Light Rain
63°F / 17°C 59°F / 15°C 88% 29.65 in
(1004 mb)
S 15 mph
(S 24 kph)
0.05 in
(1.27 mm)
10SM
20:15
Overcast
Rain
63°F / 17°C 59°F / 15°C 88% 29.68 in
(1005 mb)
S 12.7 mph
(S 20 kph)
0.03 in
(0.76 mm)
10SM
19:55
Overcast
Light Rain
63°F / 17°C 57°F / 14°C 83% 29.68 in
(1005 mb)
SSE 11.5 mph
(SSE 19 kph)
0.05 in
(1.27 mm)
10SM
19:35
Overcast
Rain
63°F / 17°C 57°F / 14°C 83% 29.68 in
(1005 mb)
S 10.4 mph
(S 17 kph)
0.04 in
(1.02 mm)
7SM
19:15
Overcast
Light Rain
63°F / 17°C 57°F / 14°C 83% 29.68 in
(1005 mb)
S 11.5 mph
(S 19 kph)
0.02 in
(0.51 mm)
10SM
18:55
Overcast
Light Rain
63°F / 17°C 57°F / 14°C 83% 29.71 in
(1006 mb)
S 8.1 mph
(S 13 kph)
0.04 in
(1.02 mm)
7SM
18:35
Overcast
Light Rain
64°F / 18°C 57°F / 14°C 78% 29.71 in
(1006 mb)
S 9.2 mph
(S 15 kph)
0.02 in
(0.51 mm)
10SM
18:15
Overcast
Rain
64°F / 18°C 57°F / 14°C 78% 29.71 in
(1006 mb)
S 10.4 mph
(S 17 kph)
0.01 in
(0.25 mm)
10SM
17:55
Overcast
Rain
66°F / 19°C 57°F / 14°C 73% 29.71 in
(1006 mb)
S 10.4 mph
(S 17 kph)
0.01 in
(0.25 mm)
10SM
17:35
Overcast
Light Rain
66°F / 19°C 55°F / 13°C 68% 29.71 in
(1006 mb)
S 13.8 mph
(S 22 kph)
- 10SM
17:15
Partly Cloudy
68°F / 20°C 55°F / 13°C 64% 29.68 in
(1005 mb)
S 17.3 mph
(S 28 kph)
- 10SM
16:55
Clear
68°F / 20°C 55°F / 13°C 64% 29.68 in
(1005 mb)
S 18.4 mph
(S 30 kph)
- 10SM
16:35
Clear
70°F / 21°C 55°F / 13°C 60% 29.68 in
(1005 mb)
SSE 15 mph
(SSE 24 kph)
- 10SM
16:15
Partly Cloudy
70°F / 21°C 54°F / 12°C 57% 29.71 in
(1006 mb)
SSE 11.5 mph
(SSE 19 kph)
- 10SM
15:55
Partly Cloudy
70°F / 21°C 54°F / 12°C 57% 29.71 in
(1006 mb)
SSE 12.7 mph
(SSE 20 kph)
- 10SM
15:35
Partly Cloudy
70°F / 21°C 54°F / 12°C 57% 29.71 in
(1006 mb)
S 13.8 mph
(S 22 kph)
- 10SM
15:15
Partly Cloudy
68°F / 20°C 54°F / 12°C 60% 29.71 in
(1006 mb)
SSE 16.1 mph
(SSE 26 kph)
- 10SM
14:55
Partly Cloudy
68°F / 20°C 54°F / 12°C 60% 29.74 in
(1007 mb)
S 11.5 mph
(S 19 kph)
- 10SM
14:35
Partly Cloudy
68°F / 20°C 54°F / 12°C 60% 29.74 in
(1007 mb)
SSE 12.7 mph
(SSE 20 kph)
- 10SM
14:15
Partly Cloudy
68°F / 20°C 55°F / 13°C 64% 29.74 in
(1007 mb)
S 16.1 mph
(S 26 kph)
- 10SM
13:55
Partly Cloudy
70°F / 21°C 55°F / 13°C 60% 29.77 in
(1008 mb)
SSE 13.8 mph
(SSE 22 kph)
- 10SM
13:35
Partly Cloudy
70°F / 21°C 55°F / 13°C 60% 29.77 in
(1008 mb)
S 17.3 mph
(S 28 kph)
- 10SM
13:15
Partly Cloudy
70°F / 21°C 55°F / 13°C 60% 29.77 in
(1008 mb)
S 13.8 mph
(S 22 kph)
- 10SM
12:55
Clear
73°F / 23°C 55°F / 13°C 53% 29.77 in
(1008 mb)
S 23 mph
(S 37 kph)
- 10SM
12:35
Clear
72°F / 22°C 57°F / 14°C 61% 29.8 in
(1009 mb)
SSE 19.6 mph
(SSE 32 kph)
- 10SM
12:15
Clear
70°F / 21°C 57°F / 14°C 64% 29.8 in
(1009 mb)
SE 12.7 mph
(SE 20 kph)
- 10SM
11:55
Partly Cloudy
68°F / 20°C 55°F / 13°C 64% 29.83 in
(1010 mb)
SSE 10.4 mph
(SSE 17 kph)
- 10SM
11:35
Partly Cloudy
66°F / 19°C 55°F / 13°C 68% 29.86 in
(1011 mb)
S 8.1 mph
(S 13 kph)
- 10SM
11:15
Partly Cloudy
64°F / 18°C 55°F / 13°C 73% 29.86 in
(1011 mb)
S 5.8 mph
(S 9 kph)
- 10SM
10:55
Partly Cloudy
64°F / 18°C 55°F / 13°C 73% 29.89 in
(1012 mb)
S 12.7 mph
(S 20 kph)
- 10SM
10:35
Clear
63°F / 17°C 54°F / 12°C 73% 29.92 in
(1013 mb)
SSE 8.1 mph
(SSE 13 kph)
- 10SM
10:15
Partly Cloudy
63°F / 17°C 54°F / 12°C 73% 29.92 in
(1013 mb)
SSE 10.4 mph
(SSE 17 kph)
- 10SM
09:55
Mostly Cloudy
61°F / 16°C 54°F / 12°C 77% 29.92 in
(1013 mb)
SE 9.2 mph
(SE 15 kph)
- 10SM
09:35
Mostly Cloudy
59°F / 15°C 52°F / 11°C 77% 29.92 in
(1013 mb)
SE 9.2 mph
(SE 15 kph)
- 10SM
09:15
Mostly Cloudy
57°F / 14°C 52°F / 11°C 82% 29.95 in
(1014 mb)
SE 6.9 mph
(SE 11 kph)
- 10SM
08:55
Partly Cloudy
55°F / 13°C 52°F / 11°C 88% 29.95 in
(1014 mb)
ESE 5.8 mph
(ESE 9 kph)
- 10SM
08:35
Partly Cloudy
52°F / 11°C 52°F / 11°C 100% 29.95 in
(1014 mb)
E 8.1 mph
(E 13 kph)
- 10SM
08:15
Partly Cloudy
50°F / 10°C 50°F / 10°C 100% 29.95 in
(1014 mb)
E 8.1 mph
(E 13 kph)
- 10SM
07:55
Partly Cloudy
48°F / 9°C 48°F / 9°C 100% 29.98 in
(1015 mb)
E 8.1 mph
(E 13 kph)
- 7SM
07:35
Overcast
48°F / 9°C 48°F / 9°C 100% 29.98 in
(1015 mb)
E 4.6 mph
(E 7 kph)
- 7SM
07:15
Overcast
46°F / 8°C 46°F / 8°C 100% 29.98 in
(1015 mb)
Calm - 7SM
06:55
Overcast
46°F / 8°C 46°F / 8°C 100% 29.98 in
(1015 mb)
ENE 6.9 mph
(ENE 11 kph)
- 7SM
06:35
Overcast
Fog And Mist
46°F / 8°C 46°F / 8°C 100% 29.98 in
(1015 mb)
E 4.6 mph
(E 7 kph)
- 5SM
06:15
Overcast
Fog And Mist
46°F / 8°C 46°F / 8°C 100% 29.98 in
(1015 mb)
E 6.9 mph
(E 11 kph)
- 5SM
05:55
Overcast
Fog And Mist
46°F / 8°C 46°F / 8°C 100% 29.98 in
(1015 mb)
ESE 5.8 mph
(ESE 9 kph)
- 3SM
05:35
Overcast
Fog And Mist
45°F / 7°C 45°F / 7°C 100% 29.98 in
(1015 mb)
E 6.9 mph
(E 11 kph)
- 2 1/2SM
05:15
Overcast
Fog And Mist
45°F / 7°C 45°F / 7°C 100% 29.98 in
(1015 mb)
E 6.9 mph
(E 11 kph)
- 2 1/2SM
04:55
Overcast
Fog And Mist
45°F / 7°C 45°F / 7°C 100% 29.98 in
(1015 mb)
E 8.1 mph
(E 13 kph)
- 3SM
04:35
Overcast
Fog And Mist
45°F / 7°C 45°F / 7°C 100% 29.98 in
(1015 mb)
E 9.2 mph
(E 15 kph)
- 3SM
04:15
Overcast
Fog And Mist
45°F / 7°C 45°F / 7°C 100% 29.98 in
(1015 mb)
E 8.1 mph
(E 13 kph)
- 2 1/2SM
03:55
Overcast
Fog And Mist
45°F / 7°C 45°F / 7°C 100% 30.01 in
(1016 mb)
E 5.8 mph
(E 9 kph)
- 3SM
03:35
Overcast
45°F / 7°C 45°F / 7°C 100% 30.01 in
(1016 mb)
E 5.8 mph
(E 9 kph)
- 7SM
03:15
Overcast
45°F / 7°C 45°F / 7°C 100% 30.01 in
(1016 mb)
E 6.9 mph
(E 11 kph)
- 10SM
02:55
Overcast
43°F / 6°C 43°F / 6°C 100% 30.01 in
(1016 mb)
E 8.1 mph
(E 13 kph)
- 10SM
02:35
Mostly Cloudy
43°F / 6°C 43°F / 6°C 100% 30.01 in
(1016 mb)
E 4.6 mph
(E 7 kph)
- 10SM
02:15
Mostly Cloudy
41°F / 5°C 41°F / 5°C 100% 30.01 in
(1016 mb)
NE 8.1 mph
(NE 13 kph)
- 10SM
01:55
Mostly Cloudy
41°F / 5°C 41°F / 5°C 100% 30.01 in
(1016 mb)
ENE 6.9 mph
(ENE 11 kph)
- 10SM
01:35
Partly Cloudy
41°F / 5°C 41°F / 5°C 100% 30.01 in
(1016 mb)
ENE 6.9 mph
(ENE 11 kph)
- 10SM
01:15
Clear
41°F / 5°C 41°F / 5°C 100% 30.01 in
(1016 mb)
ENE 6.9 mph
(ENE 11 kph)
- 10SM
00:55
Partly Cloudy
41°F / 5°C 41°F / 5°C 100% 30.04 in
(1017 mb)
NE 5.8 mph
(NE 9 kph)
- 10SM
00:35
Partly Cloudy
41°F / 5°C 41°F / 5°C 100% 30.04 in
(1017 mb)
N 4.6 mph
(N 7 kph)
- 10SM
00:15
Clear
41°F / 5°C 41°F / 5°C 100% 30.01 in
(1016 mb)
ENE 5.8 mph
(ENE 9 kph)
- 10SM
Time Weather Temperature Dewpoint Humidity Pressure Winds Precip Visibility


Weather for websites

WeatherForYou.com, LLC is not responsible for any damages or problems caused by this service. Current weather conditions are obtained from the closest station including government and personal stations which may have varying degrees of accuracy. Weather forecasts are derived from the NOAA NDFD. Like all things, this site belongs to Jesus Christ... He just trusts us to maintain it. If you have any questions or comments email webmaster@weatherforyou.com

Copyright © 2016, WeatherForYou.com LLC. All rights reserved.